Regional Weather Roundup
Issued by NWS

Home | Current Version | Previous Version | Graphics & Text | Print | Product List | Glossary On
Versions: 1 2 3 4 5 6 7 8 9 10 11 12 13 14 15 16 17 18 19 20 21 22 23 24 25 26 27 28 29 30 31 32 33 34 35 36 37 38 39 40 41 42 43 44 45 46 47 48 49 50
000
ASUS43 KMPX 292301
RWRMN
WEATHER ROUNDUP FOR MINNESOTA
NATIONAL WEATHER SERVICE TWIN CITIES/CHANHASSEN MN
600 PM CDT MON JUN 29 2015


NOTE: "FAIR" INDICATES FEW OR NO CLOUDS BELOW 12,000 FEET WITH NO
SIGNIFICANT WEATHER AND/OR OBSTRUCTIONS TO VISIBILITY. N/A MEANS
CURRENT SKY AND/OR WEATHER CONDITIONS ARE NOT AVAILABLE.

MNZ060>063-068>070-300000-
   Twin Cities Metro

CITY           SKY/WX    TMP DP  RH WIND       PRES   REMARKS
TWIN CITIES    PTSUNNY   80  64  58 SW9       29.77F
ST PAUL        MOSUNNY   79  63  57 W9        29.77S
CRYSTAL        MOSUNNY   82  66  58 W8        29.76S
LAKEVILLE      PTSUNNY   75  66  73 W7        29.78S
EDEN PRAIRIE   MOSUNNY   80  66  62 W9        29.78R
SOUTH ST PAUL  MOSUNNY   79  62  55 W9        29.77R
LAKE ELMO      PTSUNNY   73  59  60 E15       29.81R
$$
MNZ001>005-007-008-013>017-022>024-027-028-300000-
   Northwest Minnesota

CITY           SKY/WX    TMP DP  RH WIND       PRES   REMARKS
BEMIDJI        SUNNY     77  57  49 N12       29.83F
HALLOCK        SUNNY     73  57  56 N14G23    29.89R
ROSEAU         MOSUNNY   75  64  69 CALM      29.87R
WARROAD        SUNNY     72  63  73 NE9       29.87S
THIEF RVR FALL SUNNY     77  57  50 NW13      29.87R
CROOKSTON      SUNNY     75  64  69 N13       29.87R
FOSSTON        SUNNY     75  61  60 N10       29.86R
DETROIT LAKES  SUNNY     75  63  64 NW13      29.87R
MOORHEAD       SUNNY     73  64  73 NW8       29.87R
PARK RAPIDS    SUNNY     80  58  46 NW16      29.82F
MAHNOMEN       FAIR      78  61  57 N13       29.85R
$$
MNZ006-009>011-018-025>026-300000-
   North Central Minnesota

CITY           SKY/WX    TMP DP  RH WIND       PRES   REMARKS
BAUDETTE       SUNNY     72  58  61 N12       29.86R
FLAG ISLAND    SUNNY     73  55  53 N7        29.86S
INTL FALLS     MOSUNNY   71  55  56 N10       29.85R
WASKISH        SUNNY     75  61  60 N12G20    29.84S
BIG FORK       MOSUNNY  N/A N/A N/A N6        29.82R
LONGVILLE      SUNNY     79  59  50 NW3       29.81S
GRAND RAPIDS   SUNNY     75  55  50 N15       29.81R
CRANE LAKE     CLOUDY    68  57  68 N6        29.84R
ORR            MOSUNNY   72  55  56 NW3       29.81R
COOK           MOSUNNY   72  59  64 N6        29.83R
WALKER         FAIR      77  57  50 N10       29.82S
$$
MNZ012-019>021-037-300000-
   Northeast Minnesota

CITY           SKY/WX    TMP DP  RH WIND       PRES   REMARKS
DULUTH         PTSUNNY   75  60  59 N8        29.78S
ELY            MOSUNNY   72  55  56 N9        29.80S
HIBBING        MOSUNNY   75  58  55 N12       29.80R
EVELETH        SUNNY     72  59  64 N10G16    29.82R
DULUTH HARBOR  PTSUNNY   75  66  73 SW5       29.76R
TWO HARBORS    MOSUNNY   72  64  78 NW2       29.75F
GRAND MARAIS     N/A     54  53  97 S3        29.75S
G MARAIS ARPRT CLOUDY    63  57  82 N8        29.80S
$$
MNZ029>031-032-039>041-046>048-054>057-064-300000-
   West Central Minnesota

CITY           SKY/WX    TMP DP  RH WIND       PRES   REMARKS
FERGUS FALLS   SUNNY     73  63  68 NW12      29.85R
WHEATON        SUNNY     75  64  69 NW8       29.88R
MORRIS         SUNNY     77  64  65 NW12      29.85S
ALEXANDRIA     SUNNY     76  65  68 NW13      29.85S
ELBOW LAKE     FAIR      74  65  74 NW10      29.86R
WADENA         SUNNY     75  63  64 NW10      29.83S
GLENWOOD       SUNNY     75  66  73 NW10      29.85S
APPLETON       SUNNY     81  59  47 NW12      29.84S
BENSON         SUNNY     77  63  61 N8        29.84S
ORTONVILLE     SUNNY     81  61  50 NW7G16    29.85F
MADISON        SUNNY     81  63  54 NW8       29.85S
WILLMAR        FAIR      79  64  61 W12       29.84S
$$
MNZ033>034-036-042>043-049>051-058-059-300000-
   Central Minnesota

CITY           SKY/WX    TMP DP  RH WIND       PRES   REMARKS
ST CLOUD       SUNNY     80  64  58 NW10      29.79R
SAUK CENTRE    FAIR      77  64  65 NW10      29.83R
PAYNESVILLE    SUNNY     74  64  70 SW12      29.82S
AITKIN         MOSUNNY   79  63  57 NW7       29.78R
PINE RIVER       N/A     79  59  50 N15G23    29.84S
BRAINERD       SUNNY     81  57  43 NW17      29.80R
STAPLES        SUNNY     79  63  57 NW12      29.81S
LONG PRAIRIE   FAIR      75  63  64 W10       29.83S
LITTLE FALLS   SUNNY     79  61  53 W12       29.80S
LITCHFIELD     SUNNY     81  63  54 W10       29.82S
BUFFALO        SUNNY     80  62  54 W14       29.80S
MAPLE LAKE     SUNNY     80  65  60 W10G18    29.80S
$$
MNZ037-044-045-052-053-300000-
   East Central Minnesota

CITY           SKY/WX    TMP DP  RH WIND       PRES   REMARKS
PRINCETON      SUNNY     82  64  54 W10G21    29.77S
MORA           MOSUNNY   70  55  60 CALM      29.80F
CAMBRIDGE      PTSUNNY   73  59  60 NE9G20    29.77R
RUSH CITY      CLOUDY    64  60  88 S3        29.78S
MOOSE LAKE     MOSUNNY   70  68  94 CALM      29.76S
HINCKLEY       FAIR      64  63  94 CALM      29.78F
CLOQUET        MOSUNNY   75  61  60 N6        29.79R
MCGREGOR       MOSUNNY   81  59  47 NW8       29.79R
$$
MNZ071>073-080-081-089-090-097-098-300000-
   Southwest Minnesota

CITY           SKY/WX    TMP DP  RH WIND       PRES   REMARKS
MONTEVIDEO     SUNNY     79  64  61 N6        29.85S
GRANITE FALLS  SUNNY     77  65  65 W8        29.86S
CANBY          SUNNY     79  64  59 W8        29.87F
MARSHALL       SUNNY     79  61  53 NW9       29.86F
REDWOOD FALLS  SUNNY     80  63  55 W12       29.83F
OLIVIA         SUNNY     73  61  64 W9G17     29.83S
PIPESTONE      SUNNY     79  61  53 NW9       29.92S
WINDOM         SUNNY     79  61  53 W12       29.88S
WORTHINGTON    SUNNY     77  61  57 NW9       29.90S
JACKSON        SUNNY     79  61  53 W10G16    29.88S
TRACY          SUNNY     79  62  55 W6        29.87F
SLAYTON        SUNNY     78  58  50 W7        29.91S
$$
MNZ065>067-074>077-082>085-091>093-300000-
   South Central Minnesota

CITY           SKY/WX    TMP DP  RH WIND       PRES   REMARKS
MANKATO        SUNNY     79  63  57 W10       29.82F
NEW ULM        SUNNY     79  63  57 W13       29.83S
ST JAMES       SUNNY     81  66  61 W8        29.85S
FAIRMONT       SUNNY     79  61  53 NW9       29.85F
GLENCOE        SUNNY     80  66  61 W14G21    29.80F
FARIBAULT      PTSUNNY   79  66  65 W14       29.81F
OWATONNA       PTSUNNY   81  64  57 W13G18    29.81F
WASECA         MOSUNNY   77  64  65 W13       29.83F
ALBERT LEA     MOSUNNY   79  64  61 W8        29.83S
$$
MNZ078>079-086>088-094>096-300000-
   Southeast Minnesota

CITY           SKY/WX    TMP DP  RH WIND       PRES   REMARKS
ROCHESTER      MOSUNNY   78  64  61 W10       29.81F
RED WING       CLOUDY    72  55  56 E8G22     29.79R
STANTON        PTSUNNY   79  66  65 W6        29.78S
DODGE CENTER   PTSUNNY   75  64  69 W8        29.82S
WINONA         CLOUDY    70  59  68 N5        29.82R
AUSTIN         PTSUNNY   77  63  61 W9        29.82F
PRESTON        MOSUNNY   77  62  59 NW13G22   29.81F
$$
ABBREVIATIONS USED IN REMARKS
   TC - TEMPERATURES IN CELSIUS
  WCI - WIND CHILL INDEX
   HX - HEAT INDEX
  VSB - VISIBILITY
$$



USA.gov is the U.S. government's official web portal to all federal, state and local government web resources and services.